Hourly Weather Fier

Today, 14 August, Friday

Time Temperature Precipitation Wind Pressure Humidity
00:00 +26°C° 0 mm 1 mps 759 mmHg 63%
01:00 +26°C° 0 mm 1 mps 760 mmHg 63%
02:00 +26°C° 0 mm 1 mps 759 mmHg 63%
03:00 +26°C° 0 mm 1 mps 759 mmHg 64%
04:00 +25°C° 0 mm 1 mps 759 mmHg 64%
05:00 +27°C° 0 mm 1 mps 759 mmHg 59%
06:00 +28°C° 0 mm 1 mps 759 mmHg 54%
07:00 +30°C° 0 mm 1 mps 759 mmHg 49%
08:00 +32°C° 0 mm 1 mps 759 mmHg 44%
09:00 +34°C° 0 mm 1 mps 759 mmHg 39%
10:00 +36°C° 0 mm 1 mps 759 mmHg 33%
11:00 +37°C° 0 mm 2 mps 759 mmHg 32%
12:00 +38°C° 0 mm 3 mps 758 mmHg 31%
13:00 +38°C° 0 mm 4 mps 758 mmHg 30%
14:00 +38°C° 0 mm 4 mps 758 mmHg 30%
15:00 +37°C° 0 mm 3 mps 757 mmHg 31%
16:00 +37°C° 0 mm 3 mps 757 mmHg 32%
17:00 +35°C° 0 mm 2 mps 757 mmHg 38%
18:00 +31°C° 0 mm 2 mps 757 mmHg 43%
19:00 +29°C° 0 mm 1 mps 757 mmHg 48%
20:00 +29°C° 0 mm 1 mps 757 mmHg 49%
21:00 +28°C° 0 mm 1 mps 757 mmHg 49%
22:00 +28°C° 0 mm 2 mps 757 mmHg 50%
23:00 +28°C° 0 mm 2 mps 757 mmHg 50%

Tomorrow, 15 August, Saturday

Time Temperature Precipitation Wind Pressure Humidity
00:00 +27°C° 0 mm 2 mps 757 mmHg 50%
01:00 +27°C° 0 mm 2 mps 757 mmHg 50%
02:00 +27°C° 0 mm 2 mps 757 mmHg 50%
03:00 +27°C° 0 mm 2 mps 756 mmHg 49%
04:00 +27°C° 0 mm 2 mps 756 mmHg 49%
05:00 +28°C° 0 mm 2 mps 756 mmHg 46%
06:00 +30°C° 0 mm 2 mps 756 mmHg 43%
07:00 +31°C° 0 mm 2 mps 756 mmHg 40%
08:00 +33°C° 0 mm 3 mps 756 mmHg 38%
09:00 +35°C° 0 mm 4 mps 756 mmHg 35%
10:00 +36°C° 0 mm 4 mps 757 mmHg 33%
11:00 +36°C° 0 mm 5 mps 756 mmHg 35%
12:00 +36°C° 0 mm 6 mps 756 mmHg 37%
13:00 +36°C° 0 mm 6 mps 756 mmHg 39%
14:00 +36°C° 0 mm 5 mps 756 mmHg 42%
15:00 +35°C° 0 mm 4 mps 755 mmHg 44%
16:00 +34°C° 0 mm 3 mps 755 mmHg 46%
17:00 +31°C° 0 mm 2 mps 755 mmHg 54%
18:00 +30°C° 0 mm 2 mps 755 mmHg 62%
19:00 +28°C° 0 mm 1 mps 755 mmHg 69%
20:00 +27°C° 0 mm 1 mps 756 mmHg 71%
21:00 +27°C° 0 mm 1 mps 756 mmHg 73%
22:00 +26°C° 0 mm 1 mps 756 mmHg 74%
23:00 +26°C° 0 mm 1 mps 756 mmHg 75%

Day after tomorrow, 16 August, Sunday

Time Temperature Precipitation Wind Pressure Humidity
00:00 +26°C° 0 mm 1 mps 756 mmHg 75%
01:00 +25°C° 0 mm 1 mps 756 mmHg 75%
02:00 +25°C° 0 mm 1 mps 756 mmHg 77%
03:00 +25°C° 0 mm 1 mps 756 mmHg 79%
04:00 +24°C° 0 mm 1 mps 756 mmHg 81%
05:00 +26°C° 0 mm 1 mps 756 mmHg 76%
06:00 +27°C° 0 mm 1 mps 756 mmHg 70%
07:00 +28°C° 0 mm 1 mps 756 mmHg 65%
08:00 +30°C° 0 mm 1 mps 756 mmHg 57%
09:00 +32°C° 0 mm 2 mps 756 mmHg 49%
10:00 +35°C° 0 mm 3 mps 757 mmHg 41%
11:00 +35°C° 0 mm 4 mps 756 mmHg 41%
12:00 +35°C° 0 mm 4 mps 756 mmHg 40%
13:00 +36°C° 0 mm 5 mps 756 mmHg 40%
14:00 +35°C° 0 mm 5 mps 756 mmHg 42%
15:00 +34°C° 0 mm 5 mps 756 mmHg 44%
16:00 +34°C° 0 mm 4 mps 756 mmHg 46%
17:00 +31°C° 0 mm 3 mps 756 mmHg 54%
18:00 +29°C° 0 mm 2 mps 756 mmHg 62%
19:00 +27°C° 0 mm 1 mps 756 mmHg 70%
20:00 +27°C° 0 mm 1 mps 757 mmHg 71%
21:00 +26°C° 0 mm 1 mps 757 mmHg 72%
22:00 +26°C° 0 mm 1 mps 757 mmHg 73%
23:00 +26°C° 0 mm 1 mps 757 mmHg 74%

17 August, Monday

Time Temperature Precipitation Wind Pressure Humidity
00:00 +26°C° 0 mm 1 mps 757 mmHg 74%
01:00 +26°C° 0 mm 2 mps 757 mmHg 74%
02:00 +25°C° 0 mm 1 mps 757 mmHg 76%
03:00 +25°C° 0 mm 1 mps 757 mmHg 77%
04:00 +25°C° 0 mm 1 mps 757 mmHg 78%
05:00 +26°C° 0 mm 1 mps 757 mmHg 71%
06:00 +27°C° 0 mm 1 mps 757 mmHg 64%
07:00 +29°C° 0 mm 2 mps 757 mmHg 57%
08:00 +31°C° 0 mm 2 mps 757 mmHg 50%
09:00 +34°C° 0 mm 2 mps 757 mmHg 43%
10:00 +36°C° 0 mm 2 mps 758 mmHg 36%
11:00 +36°C° 0 mm 3 mps 757 mmHg 34%
12:00 +37°C° 0 mm 4 mps 757 mmHg 32%
13:00 +37°C° 0 mm 4 mps 757 mmHg 30%
14:00 +37°C° 0 mm 4 mps 757 mmHg 30%
15:00 +36°C° 0 mm 3 mps 756 mmHg 31%
16:00 +36°C° 0 mm 3 mps 756 mmHg 32%
17:00 +34°C° 0 mm 2 mps 756 mmHg 37%
18:00 +31°C° 0 mm 1 mps 757 mmHg 43%
19:00 +27°C° 0 mm 0 mps 757 mmHg 49%
20:00 +26°C° 0 mm 0 mps 757 mmHg 49%
21:00 +26°C° 0 mm 0 mps 757 mmHg 49%
22:00 +25°C° 0 mm 0 mps 757 mmHg 48%
23:00 +27°C° 0 mm 1 mps 757 mmHg 48%

18 August, Tuesday

Time Temperature Precipitation Wind Pressure Humidity
00:00 +27°C° 0 mm 1 mps 757 mmHg 47%
01:00 +26°C° 0 mm 1 mps 757 mmHg 47%
02:00 +26°C° 0 mm 1 mps 757 mmHg 46%
03:00 +26°C° 0 mm 1 mps 757 mmHg 45%
04:00 +26°C° 0 mm 2 mps 756 mmHg 45%
05:00 +28°C° 0 mm 2 mps 756 mmHg 41%
06:00 +29°C° 0 mm 2 mps 756 mmHg 38%
07:00 +31°C° 0 mm 2 mps 757 mmHg 34%
08:00 +32°C° 0 mm 2 mps 756 mmHg 32%
09:00 +35°C° 0 mm 2 mps 756 mmHg 30%
10:00 +37°C° 0 mm 2 mps 756 mmHg 28%
11:00 +37°C° 0 mm 3 mps 756 mmHg 30%
12:00 +37°C° 0 mm 4 mps 756 mmHg 31%
13:00 +37°C° 0 mm 5 mps 756 mmHg 33%
14:00 +37°C° 0 mm 4 mps 755 mmHg 34%
15:00 +36°C° 0 mm 4 mps 755 mmHg 35%
16:00 +36°C° 0 mm 3 mps 755 mmHg 36%
17:00 +34°C° 0 mm 2 mps 755 mmHg 40%
18:00 +31°C° 0 mm 1 mps 755 mmHg 44%
19:00 +29°C° 0 mm 1 mps 755 mmHg 48%
20:00 +29°C° 0 mm 1 mps 755 mmHg 51%
21:00 +28°C° 0 mm 1 mps 755 mmHg 53%
22:00 +27°C° 0 mm 1 mps 755 mmHg 56%
23:00 +27°C° 0 mm 1 mps 755 mmHg 57%

19 August, Wednesday

Time Temperature Precipitation Wind Pressure Humidity
00:00 +26°C° 0 mm 1 mps 755 mmHg 58%
01:00 +26°C° 0 mm 1 mps 755 mmHg 60%
02:00 +26°C° 0 mm 2 mps 754 mmHg 58%
03:00 +26°C° 0 mm 2 mps 754 mmHg 56%
04:00 +25°C° 0 mm 2 mps 754 mmHg 54%
05:00 +27°C° 0 mm 1 mps 754 mmHg 50%
06:00 +29°C° 0 mm 1 mps 754 mmHg 45%
07:00 +30°C° 0 mm 1 mps 754 mmHg 41%
08:00 +32°C° 0 mm 2 mps 754 mmHg 39%
09:00 +34°C° 0 mm 3 mps 754 mmHg 37%
10:00 +35°C° 0 mm 4 mps 754 mmHg 36%
11:00 +35°C° 0 mm 4 mps 754 mmHg 38%
12:00 +36°C° 0 mm 5 mps 753 mmHg 39%
13:00 +36°C° 0 mm 6 mps 753 mmHg 41%
14:00 +35°C° 0 mm 5 mps 753 mmHg 42%
15:00 +34°C° 0 mm 5 mps 753 mmHg 44%
16:00 +34°C° 0 mm 4 mps 753 mmHg 45%
17:00 +32°C° 0 mm 4 mps 753 mmHg 56%
18:00 +29°C° 0 mm 3 mps 753 mmHg 67%
19:00 +27°C° 0 mm 3 mps 753 mmHg 78%
20:00 +26°C° 0 mm 2 mps 754 mmHg 80%
21:00 +26°C° 0 mm 2 mps 754 mmHg 83%
22:00 +25°C° 0 mm 1 mps 754 mmHg 86%
23:00 +25°C° 0 mm 1 mps 754 mmHg 86%
Show more